EW7199 Weather Reports


Display with metric or nautical units.
time (UTC)temp
F
wind
direction
speed
MPH
gust
MPH
rain 1hr
in
rain 24hr
in
rain mn
in
humidity
%
barometer
mb
20260510175910 66 333 1.0 3.0 0.00 0.00 0.00 76 1013.3
20260510175409 66 95 1.0 3.0 0.00 0.00 0.00 76 1013.3
20260510174909 66 112 1.0 3.0 0.00 0.00 0.00 76 1013.3
20260510174413 66 148 1.0 3.0 0.00 0.00 0.00 76 1013.1
20260510173910 67 107 2.0 3.0 0.00 0.00 0.00 76 1013.0
20260510173409 67 126 1.0 3.0 0.00 0.00 0.00 75 1013.0
20260510172409 67 124 1.0 3.0 0.00 0.00 0.00 75 1013.0
20260510171910 67 128 2.0 3.0 0.00 0.00 0.00 74 1013.0
20260510171409 67 120 2.0 3.0 0.00 0.00 0.00 73 1013.1
20260510170909 67 111 2.0 3.0 0.00 0.00 0.00 73 1013.1
20260510170410 67 108 2.0 3.0 0.00 0.00 0.00 72 1013.2
20260510165910 68 135 2.0 3.0 0.00 0.00 0.00 72 1013.2
20260510165410 68 130 2.0 3.0 0.00 0.00 0.00 71 1013.2
20260510164910 68 118 1.0 3.0 0.00 0.00 0.00 71 1013.2
20260510164410 68 120 1.0 3.0 0.00 0.00 0.00 71 1013.2
20260510163910 68 179 2.0 3.0 0.00 0.00 0.00 70 1013.2
20260510163410 68 127 2.0 5.0 0.00 0.00 0.00 69 1013.2
20260510162910 68 133 2.0 5.0 0.00 0.00 0.00 68 1013.2
20260510162408 68 138 2.0 5.0 0.00 0.00 0.00 68 1013.3
20260510161910 69 124 2.0 3.0 0.00 0.00 0.00 67 1013.3
20260510161410 69 148 2.0 3.0 0.00 0.00 0.00 66 1013.3
20260510160910 69 167 2.0 3.0 0.00 0.00 0.00 65 1013.3
20260510160410 69 137 2.0 5.0 0.00 0.00 0.00 65 1013.3
20260510155910 69 139 2.0 5.0 0.00 0.00 0.00 64 1013.3
20260510155410 70 130 2.0 3.0 0.00 0.00 0.00 63 1013.4
20260510154910 70 139 2.0 3.0 0.00 0.00 0.00 62 1013.5
20260510154410 71 138 2.0 3.0 0.00 0.00 0.00 61 1013.6
20260510153909 71 137 1.0 3.0 0.00 0.00 0.00 60 1013.6
20260510153410 71 141 1.0 3.0 0.00 0.00 0.00 58 1013.6
20260510152910 71 184 1.0 3.0 0.00 0.00 0.00 57 1013.7
20260510152410 71 133 2.0 3.0 0.00 0.00 0.00 57 1013.6
20260510151910 71 100 1.0 3.0 0.00 0.00 0.00 59 1013.6
20260510151410 71 142 2.0 3.0 0.00 0.00 0.00 59 1013.7
20260510150909 70 191 2.0 3.0 0.00 0.00 0.00 59 1013.7
20260510150410 70 170 1.0 3.0 0.00 0.00 0.00 61 1013.8
20260510145910 70 238 1.0 3.0 0.00 0.00 0.00 62 1013.9
20260510145409 70 148 1.0 3.0 0.00 0.00 0.00 63 1013.9
20260510144909 69 240 2.0 3.0 0.00 0.00 0.00 64 1013.9
20260510144409 70 142 2.0 3.0 0.00 0.00 0.00 63 1013.9
20260510143910 70 124 2.0 6.0 0.00 0.00 0.00 61 1014.0
20260510143409 70 182 1.0 3.0 0.00 0.00 0.00 60 1014.1
20260510142410 71 80 1.0 3.0 0.00 0.00 0.00 57 1013.9
20260510141909 71 186 3.0 6.0 0.00 0.00 0.00 57 1013.9
20260510135911 71 119 2.0 3.0 0.00 0.00 0.00 57 1014.1
20260510134909 71 148 2.0 3.0 0.00 0.00 0.00 55 1014.0
20260510133416 72 220 2.0 3.0 0.00 0.00 0.00 53 1014.1
20260510132909 71 183 2.0 5.0 0.00 0.00 0.00 55 1014.1
20260510132423 71 296 1.0 3.0 0.00 0.00 0.00 55 1014.0
20260510131910 71 150 3.0 5.0 0.00 0.00 0.00 54 1014.1
20260510131410 72 150 2.0 5.0 0.00 0.00 0.00 54 1014.1
20260510130410 71 121 2.0 6.0 0.00 0.00 0.00 54 1014.2
20260510125909 72 150 3.0 3.0 0.00 0.00 0.00 52 1014.3
20260510125410 72 130 1.0 3.0 0.00 0.00 0.00 54 1014.2
20260510124909 72 142 2.0 3.0 0.00 0.00 0.00 53 1014.3
20260510124418 72 230 1.0 3.0 0.00 0.00 0.00 56 1014.3
20260510122909 71 147 3.0 5.0 0.00 0.00 0.00 54 1014.3
20260510122410 72 141 2.0 5.0 0.00 0.00 0.00 54 1014.4
20260510121933 71 121 1.0 3.0 0.00 0.00 0.00 54 1014.4
20260510121409 72 135 3.0 3.0 0.00 0.00 0.00 53 1014.4
20260510120910 72 150 1.0 3.0 0.00 0.00 0.00 52 1014.5
20260510120410 73 143 3.0 5.0 0.00 0.00 0.00 50 1014.4
20260510115909 73 227 1.0 3.0 0.00 0.00 0.00 51 1014.4
20260510115409 72 145 2.0 6.0 0.00 0.00 0.00 52 1014.3
20260510114410 73 136 2.0 6.0 0.00 0.00 0.00 50 1014.3
20260510113910 73 170 2.0 3.0 0.00 0.00 0.00 50 1014.4
20260510113409 73 102 2.0 3.0 0.00 0.00 0.00 51 1014.6
20260510112909 72 221 2.0 3.0 0.00 0.00 0.00 53 1014.5
20260510111910 73 137 2.0 5.0 0.00 0.00 0.00 52 1014.6
20260510111410 73 124 1.0 3.0 0.00 0.00 0.00 53 1014.7
20260510110910 73 164 2.0 3.0 0.00 0.00 0.00 54 1014.7
20260510110409 73 264 1.0 3.0 0.00 0.00 0.00 54 1014.8
20260510105910 72 125 2.0 3.0 0.00 0.00 0.00 54 1014.7
20260510104412 72 134 2.0 5.0 0.00 0.00 0.00 54 1014.8
20260510103908 72 132 1.0 3.0 0.00 0.00 0.00 54 1014.8
20260510103409 72 122 2.0 5.0 0.00 0.00 0.00 53 1014.7
20260510102909 72 147 2.0 5.0 0.00 0.00 0.00 55 1014.8
20260510102421 71 134 2.0 3.0 0.00 0.00 0.00 55 1014.9
20260510101908 71 129 3.0 3.0 0.00 0.00 0.00 54 1014.9
20260510101409 71 138 3.0 6.0 0.00 0.00 0.00 54 1014.9
20260510100908 72 139 3.0 5.0 0.00 0.00 0.00 53 1015.0
20260510100409 72 349 2.0 3.0 0.00 0.00 0.00 53 1014.9
20260510095909 72 134 1.0 3.0 0.00 0.00 0.00 53 1015.0
20260510094911 71 135 2.0 5.0 0.00 0.00 0.00 54 1015.1
20260510094410 71 144 3.0 5.0 0.00 0.00 0.00 53 1015.1
20260510093909 72 99 2.0 6.0 0.00 0.00 0.00 53 1015.2
20260510093409 72 151 3.0 9.0 0.00 0.00 0.00 52 1015.3
20260510092910 72 135 2.0 5.0 0.00 0.00 0.00 52 1015.5
20260510092409 72 202 1.0 3.0 0.00 0.00 0.00 53 1015.4
20260510091910 72 140 2.0 3.0 0.00 0.00 0.00 53 1015.4
20260510091409 72 133 2.0 3.0 0.00 0.00 0.00 53 1015.5
20260510090909 72 124 2.0 3.0 0.00 0.00 0.00 53 1015.3
20260510090409 72 164 1.0 3.0 0.00 0.00 0.00 53 1015.4
20260510085910 71 144 2.0 3.0 0.00 0.00 0.00 54 1015.5
20260510085409 71 96 2.0 3.0 0.00 0.00 0.00 57 1015.5
20260510083909 70 110 2.0 3.0 0.00 0.00 0.00 59 1015.8
20260510083410 70 131 2.0 3.0 0.00 0.00 0.00 60 1015.8
20260510082910 70 114 1.0 3.0 0.00 0.00 0.00 63 1015.8
20260510082409 69 123 2.0 3.0 0.00 0.00 0.00 63 1015.8
20260510081909 69 142 1.0 3.0 0.00 0.00 0.00 65 1015.7
20260510081410 69 132 2.0 3.0 0.00 0.00 0.00 64 1015.8
20260510080910 68 129 2.0 3.0 0.00 0.00 0.00 68 1015.9
20260510080409 68 92 2.0 3.0 0.00 0.00 0.00 68 1015.8
20260510075910 67 79 1.0 3.0 0.00 0.00 0.00 70 1015.8
20260510075410 67 97 2.0 3.0 0.00 0.00 0.00 71 1015.8
20260510074410 66 93 1.0 3.0 0.00 0.00 0.00 72 1015.7
20260510073909 66 72 2.0 3.0 0.00 0.00 0.00 72 1015.8
20260510073410 66 104 2.0 3.0 0.00 0.00 0.00 72 1015.7
20260510072909 65 72 1.0 3.0 0.00 0.00 0.00 72 1015.7
20260510071909 65 71 2.0 3.0 0.00 0.00 0.00 71 1015.6
20260510071410 65 88 1.0 3.0 0.00 0.00 0.00 71 1015.5
20260510070910 65 52 1.0 3.0 0.00 0.00 0.00 72 1015.6
20260510070409 65 46 1.0 3.0 0.00 0.00 0.00 72 1015.6
20260510065910 64 103 1.0 3.0 0.00 0.00 0.00 72 1015.7
20260510065408 64 75 2.0 3.0 0.00 0.00 0.00 72 1015.8
20260510064909 64 45 1.0 3.0 0.00 0.00 0.00 72 1015.8
20260510064409 64 69 1.0 3.0 0.00 0.00 0.00 72 1015.8
20260510063909 63 25 1.0 3.0 0.00 0.00 0.00 72 1015.8
20260510063408 63 53 2.0 3.0 0.00 0.00 0.00 72 1015.7
20260510062909 62 47 2.0 3.0 0.00 0.00 0.00 73 1015.7
20260510062410 62 73 2.0 5.0 0.00 0.00 0.00 73 1015.6
20260510061908 62 75 2.0 3.0 0.00 0.00 0.00 72 1015.6
20260510061409 62 64 2.0 3.0 0.00 0.00 0.00 72 1015.7
20260510060909 62 78 2.0 3.0 0.00 0.00 0.00 73 1015.8
20260510060409 61 53 2.0 5.0 0.00 0.00 0.00 73 1015.7
20260510055909 61 50 2.0 3.0 0.00 0.00 0.00 74 1015.8
20260510055409 61 38 1.0 5.0 0.00 0.00 0.00 74 1015.9
20260510054909 61 63 1.0 3.0 0.00 0.00 0.00 75 1015.8
20260510053409 60 51 3.0 3.0 0.00 0.00 0.00 78 1015.4
20260510052908 59 49 2.0 3.0 0.00 0.00 0.00 79 1015.7
20260510052411 59 64 2.0 3.0 0.00 0.00 0.00 79 1015.7
20260510051908 59 63 2.0 3.0 0.00 0.00 0.00 79 1015.7
20260510050909 59 78 2.0 5.0 0.00 0.00 0.00 80 1015.9
20260510045909 59 83 2.0 3.0 0.00 0.00 0.00 80 1016.2
20260510045408 59 103 2.0 3.0 0.00 0.00 0.00 80 1016.2
20260510044909 59 60 2.0 3.0 0.00 0.00 0.00 79 1016.3
20260510043409 60 139 2.0 3.0 0.00 0.00 0.00 81 1016.5
20260510042909 61 210 0.0 2.0 0.00 0.00 0.00 82 1016.6
20260510042416 61 211 0.0 0.0 0.00 0.00 0.00 83 1016.6
20260510041909 61 211 0.0 1.0 0.00 0.00 0.00 83 1016.6
20260510041409 61 211 0.0 0.0 0.00 0.00 0.00 83 1016.7
20260510040908 61 211 1.0 2.0 0.00 0.00 0.00 83 1016.8
20260510035909 61 211 1.0 2.0 0.00 0.00 0.00 82 1017.0
20260510035409 61 211 0.0 3.0 0.00 0.00 0.00 81 1016.9
20260510034908 61 213 2.0 3.0 0.00 0.00 0.00 81 1017.0
20260510034409 61 218 1.0 3.0 0.00 0.00 0.00 80 1017.0
20260510033909 61 221 1.0 2.0 0.00 0.00 0.00 80 1017.0
20260510033409 61 221 0.0 0.0 0.00 0.00 0.00 80 1017.0
20260510032909 61 221 0.0 1.0 0.00 0.00 0.00 79 1016.8
20260510031908 61 240 1.0 3.0 0.00 0.00 0.00 78 1016.7
20260510031408 62 250 2.0 3.0 0.00 0.00 0.00 78 1016.8
20260510030908 62 346 1.0 3.0 0.00 0.00 0.00 78 1016.6
20260510030409 62 10 1.0 2.0 0.00 0.00 0.00 78 1016.4
20260510025409 62 13 0.0 2.0 0.00 0.00 0.00 78 1016.0
20260510024908 62 13 0.0 2.0 0.00 0.00 0.00 78 1015.8
20260510024409 62 13 0.0 2.0 0.00 0.00 0.00 79 1015.7
20260510023909 62 16 1.0 3.0 0.00 0.00 0.00 80 1015.7
20260510023408 62 297 1.0 2.0 0.00 0.00 0.00 80 1015.9
20260510022908 62 296 1.0 2.0 0.00 0.00 0.00 80 1015.9
20260510022409 62 296 1.0 3.0 0.00 0.00 0.00 80 1015.9
20260510021410 62 260 1.0 2.0 0.00 0.00 0.00 79 1016.0
20260510020908 62 258 1.0 2.0 0.00 0.00 0.00 79 1015.9
20260510015412 62 261 2.0 2.0 0.00 0.00 0.00 78 1016.0
20260510014910 62 290 2.0 3.0 0.00 0.00 0.00 77 1016.0
20260510014409 61 78 0.0 1.0 0.00 0.00 0.00 77 1015.9
20260510013909 61 78 0.0 0.0 0.00 0.00 0.00 77 1015.8
20260510013409 61 78 0.0 0.0 0.00 0.00 0.00 78 1015.7
20260510012909 61 78 0.0 0.0 0.00 0.00 0.00 78 1015.6
20260510012408 61 78 1.0 1.0 0.00 0.00 0.00 78 1015.6
20260510011908 61 78 0.0 2.0 0.00 0.00 0.00 78 1015.5
20260510011409 61 79 1.0 3.0 0.00 0.00 0.00 78 1015.5
20260510010909 62 80 1.0 3.0 0.00 0.00 0.00 77 1015.7
20260510010408 62 80 0.0 1.0 0.00 0.00 0.00 77 1015.7
20260510005909 62 80 0.0 2.0 0.00 0.00 0.00 78 1015.8
20260510005409 62 80 0.0 2.0 0.00 0.00 0.00 77 1015.9
20260510004909 62 80 0.0 1.0 0.00 0.00 0.00 77 1016.0
20260510004408 61 80 0.0 0.0 0.00 0.00 0.00 77 1015.8
20260510003909 61 80 0.0 0.0 0.00 0.00 0.00 77 1015.7
20260510003410 61 81 0.0 0.0 0.00 0.00 0.00 76 1015.9
20260510002410 62 87 2.0 3.0 0.00 0.00 0.00 74 1015.7
20260510001909 62 86 1.0 3.0 0.00 0.00 0.00 73 1015.7
20260510001410 63 85 2.0 3.0 0.00 0.00 0.00 71 1015.8
20260510000909 64 128 1.0 3.0 0.00 0.00 0.00 70 1015.8
20260510000411 64 111 0.0 0.0 0.00 0.00 0.00 69 1015.8
20260509234908 63 111 0.0 0.0 0.00 0.00 0.00 73 1015.8
20260509234415 62 111 0.0 0.0 0.00 0.00 0.00 74 1016.0
20260509233909 62 111 0.0 0.0 0.00 0.00 0.00 74 1016.2
20260509233409 62 111 1.0 2.0 0.00 0.00 0.00 74 1016.2
20260509232909 62 111 1.0 2.0 0.00 0.00 0.00 74 1016.2
20260509232410 62 111 1.0 2.0 0.00 0.00 0.00 75 1016.3
20260509231909 61 111 0.0 0.0 0.00 0.00 0.00 76 1016.3
20260509231409 61 112 1.0 2.0 0.00 0.00 0.00 77 1016.6
20260509230909 60 111 0.0 0.0 0.00 0.00 0.00 77 1016.7
20260509230408 60 111 1.0 2.0 0.00 0.00 0.00 76 1016.4
20260509225408 61 113 1.0 2.0 0.00 0.00 0.00 76 1016.2
20260509224411 61 98 1.0 3.0 0.00 0.00 0.00 76 1016.2
20260509223909 61 97 2.0 3.0 0.00 0.00 0.00 76 1016.2
20260509223409 62 86 1.0 3.0 0.00 0.00 0.00 76 1016.3
20260509222909 62 80 2.0 3.0 0.00 0.00 0.00 76 1016.3
20260509222410 62 55 2.0 3.0 0.00 0.00 0.00 76 1016.3
20260509221909 62 79 2.0 3.0 0.00 0.00 0.00 76 1016.3
20260509221408 62 36 2.0 3.0 0.00 0.00 0.00 77 1016.3
20260509220908 63 49 1.0 3.0 0.00 0.00 0.00 78 1016.3
20260509220409 63 49 2.0 3.0 0.00 0.00 0.00 78 1016.2
20260509215408 64 42 0.0 0.0 0.00 0.00 0.00 78 1016.3
20260509214909 64 66 0.0 0.0 0.00 0.00 0.00 77 1016.4
20260509214409 64 41 0.0 2.0 0.00 0.00 0.00 77 1016.5
20260509213909 64 39 1.0 2.0 0.00 0.00 0.00 78 1016.6
20260509212908 64 45 1.0 2.0 0.00 0.00 0.00 78 1016.8
20260509212408 64 55 2.0 3.0 0.00 0.00 0.00 79 1017.0
20260509211908 64 55 1.0 3.0 0.00 0.00 0.00 79 1017.2
20260509211409 64 55 1.0 2.0 0.00 0.00 0.00 79 1017.2
20260509210908 64 64 1.0 2.0 0.00 0.00 0.00 80 1017.2
20260509210409 64 66 0.0 2.0 0.00 0.00 0.00 80 1017.4
20260509205908 64 67 1.0 2.0 0.00 0.00 0.00 80 1017.5
20260509205409 64 67 1.0 2.0 0.00 0.00 0.00 81 1017.6
20260509204909 64 69 1.0 2.0 0.00 0.00 0.00 81 1017.5
20260509204410 64 72 0.0 1.0 0.00 0.00 0.00 81 1017.5
20260509203909 64 73 1.0 2.0 0.00 0.00 0.00 81 1017.5
20260509203410 65 77 0.0 2.0 0.00 0.00 0.00 80 1017.5
20260509202909 65 80 0.0 2.0 0.00 0.00 0.00 80 1017.5
20260509202408 65 44 1.0 3.0 0.00 0.00 0.00 80 1017.4
20260509201410 65 25 2.0 3.0 0.00 0.00 0.00 80 1017.4
20260509200409 65 259 1.0 2.0 0.00 0.00 0.00 81 1017.4
20260509195908 65 256 0.0 2.0 0.00 0.00 0.00 81 1017.3
20260509195409 65 254 0.0 2.0 0.00 0.00 0.00 82 1017.3
20260509194410 65 252 0.0 1.0 0.00 0.00 0.00 83 1017.5
20260509193909 65 252 1.0 2.0 0.00 0.00 0.00 83 1017.5
20260509193408 65 252 1.0 2.0 0.00 0.00 0.00 82 1017.5
20260509192908 65 252 1.0 2.0 0.00 0.00 0.00 82 1017.6
20260509192408 65 254 1.0 2.0 0.00 0.00 0.00 82 1017.6
20260509191908 65 259 1.0 2.0 0.00 0.00 0.00 81 1017.6
20260509191409 65 255 1.0 3.0 0.00 0.00 0.00 81 1017.5
20260509190909 65 268 2.0 3.0 0.00 0.00 0.00 81 1017.4
20260509190408 66 229 2.0 3.0 0.00 0.00 0.00 79 1017.3
20260509185409 66 170 0.0 2.0 0.00 0.00 0.00 78 1017.1
20260509184408 66 138 1.0 2.0 0.00 0.00 0.00 78 1016.8
20260509183908 66 136 0.0 2.0 0.00 0.00 0.00 80 1016.8
20260509183408 66 136 0.0 2.0 0.00 0.00 0.00 80 1016.7
20260509182909 66 136 0.0 3.0 0.00 0.00 0.00 80 1016.6
20260509182409 66 153 0.0 2.0 0.00 0.00 0.00 79 1016.6
20260509181907 66 152 1.0 2.0 0.00 0.00 0.00 79 1016.5
20260509181409 66 199 1.0 3.0 0.00 0.00 0.00 78 1016.5
20260509180909 66 219 1.0 3.0 0.00 0.00 0.00 77 1016.6